Weather History for Lemoore (Abandoned) Willett A, CO

Change the Weather History Date:

Wednesday, January 22, 2014

  Actual Average (KBJC) Record (KBJC)
Temperature  
Mean Temperature 34 °F -  
Max Temperature 46 °F 44 °F 66 °F (2009)
Min Temperature 22 °F 25 °F 1 °F (2008)
Degree Days  
Heating Degree Days 31    
Moisture  
Dew Point 16 °F    
Average Humidity 52    
Maximum Humidity 92    
Minimum Humidity 30    
Precipitation  
Precipitation 0.00 in - - ()
Sea Level Pressure  
Sea Level Pressure 30.15 in    
Wind  
Wind Speed 5 mph (ENE)    
Max Wind Speed 21 mph    
Max Gust Speed 25 mph    
Visibility 9 miles    
Events Snow    
Averages and records for this station are not official NWS values.
T = Trace of Precipitation, MM = Missing Value Source: NWS Daily Summary

Daily Weather History Graph

Daily Weather History Graph

Search for Another Location

Airport:

Trip Planner

Search our weather history database for the weather conditions in past years. The results will help you decide how hot, cold, wet, or windy it might be!

Date:

Astronomy

Jan. 22, 2014 Rise Set
Actual Time 7:17 AM MST 5:07 PM MST
Civil Twilight 6:48 AM MST 5:36 PM MST
Nautical Twilight 6:14 AM MST 6:10 PM MST
Astronomical Twilight 5:42 AM MST 6:42 PM MST
Moon 11:43 PM MST (1/22) 10:19 AM MST (1/22)
Length of Visible Light 10h 48m
Length of Day
9h 50m
Waning Gibbous, 65% of the Moon is Illuminated
Jan 22
Waning Gibbous
Jan 23
Last Quarter
Jan 30
New
Feb 6
First Quarter
Feb 14
Full

Hourly Weather History & Observations

Time (MST) Temp. Windchill Dew Point Humidity Pressure Visibility Wind Dir Wind Speed Gust Speed Precip Events Conditions
12:12 AM 27.1 °F 23.2 °F 9.7 °F 48% 30.15 in 10.0 mi NW 3.5 mph - N/A   Clear
12:32 AM 27.3 °F 22.0 °F 10.2 °F 49% 30.14 in 10.0 mi WNW 4.6 mph - N/A   Clear
12:52 AM 26.4 °F 19.8 °F 10.0 °F 50% 30.13 in 10.0 mi West 5.8 mph - N/A   Clear
1:12 AM 28.4 °F 24.6 °F 10.0 °F 46% 30.13 in 10.0 mi WNW 3.5 mph - N/A   Clear
1:32 AM 25.9 °F 20.3 °F 10.6 °F 52% 30.13 in 10.0 mi NW 4.6 mph - N/A   Clear
1:52 AM 26.8 °F 22.8 °F 11.3 °F 52% 30.13 in 10.0 mi WNW 3.5 mph - N/A   Clear
2:12 AM 24.8 °F 17.9 °F 10.2 °F 54% 30.13 in 10.0 mi WNW 5.8 mph - N/A   Clear
2:32 AM 26.6 °F 21.2 °F 10.8 °F 51% 30.12 in 10.0 mi WNW 4.6 mph - N/A   Clear
2:52 AM 27.5 °F - 11.5 °F 51% 30.11 in 10.0 mi Calm Calm - N/A   Clear
3:12 AM 25.9 °F - 12.2 °F 56% 30.11 in 10.0 mi Calm Calm - N/A   Clear
3:32 AM 27.1 °F 23.2 °F 12.2 °F 53% 30.11 in 10.0 mi West 3.5 mph - N/A   Clear
3:52 AM 25.2 °F - 12.4 °F 58% 30.10 in 10.0 mi Calm Calm - N/A   Clear
4:12 AM 23.0 °F - 14.4 °F 70% 30.11 in 10.0 mi Calm Calm - N/A   Clear
4:32 AM 23.9 °F - 14.9 °F 69% 30.11 in 10.0 mi Calm Calm - N/A   Clear
4:52 AM 25.9 °F 20.3 °F 13.5 °F 59% 30.11 in 10.0 mi NNE 4.6 mph - N/A   Clear
5:12 AM 29.3 °F 21.5 °F 14.9 °F 55% 30.13 in 10.0 mi North 8.1 mph - N/A   Clear
5:32 AM 28.9 °F 20.4 °F 15.1 °F 56% 30.13 in 10.0 mi North 9.2 mph - N/A   Clear
5:52 AM 27.7 °F 23.8 °F 14.7 °F 58% 30.14 in 10.0 mi North 3.5 mph - N/A   Clear
6:12 AM 26.4 °F 19.8 °F 14.7 °F 61% 30.14 in 10.0 mi North 5.8 mph - N/A   Clear
6:32 AM 26.8 °F 21.4 °F 14.4 °F 60% 30.15 in 10.0 mi North 4.6 mph - N/A   Clear
6:52 AM 25.9 °F - 14.7 °F 63% 30.15 in 10.0 mi Calm Calm - N/A   Clear
7:12 AM 25.2 °F - 13.5 °F 61% 30.15 in 10.0 mi Calm Calm - N/A   Clear
7:32 AM 22.3 °F - 12.7 °F 67% 30.16 in 10.0 mi Calm Calm - N/A   Clear
7:52 AM 26.4 °F - 13.8 °F 59% 30.16 in 10.0 mi Calm Calm - N/A   Clear
8:12 AM 27.1 °F 21.8 °F 15.3 °F 61% 30.16 in 10.0 mi SSW 4.6 mph - N/A   Clear
8:32 AM 31.6 °F 28.3 °F 17.8 °F 57% 30.17 in 10.0 mi SSW 3.5 mph - N/A   Clear
8:52 AM 33.1 °F - 17.2 °F 52% 30.16 in 10.0 mi Calm Calm - N/A   Clear
9:12 AM 36.3 °F - 14.5 °F 41% 30.17 in 10.0 mi Calm Calm - N/A   Clear
9:32 AM 37.6 °F - 14.4 °F 39% 30.17 in 10.0 mi Calm Calm - N/A   Clear
9:52 AM 39.0 °F 36.8 °F 14.7 °F 37% 30.17 in 10.0 mi NE 3.5 mph - N/A   Clear
10:12 AM 41.2 °F 39.2 °F 15.1 °F 35% 30.17 in 10.0 mi ENE 3.5 mph - N/A   Clear
10:32 AM 41.0 °F 36.4 °F 14.9 °F 35% 30.17 in 10.0 mi ESE 6.9 mph - N/A   Clear
10:52 AM 41.2 °F 36.0 °F 15.3 °F 35% 30.16 in 10.0 mi SE 8.1 mph - N/A   Clear
11:12 AM 41.5 °F 37.8 °F 14.9 °F 34% 30.15 in 10.0 mi SE 5.8 mph - N/A   Clear
11:32 AM 44.6 °F 42.2 °F 15.4 °F 31% 30.14 in 10.0 mi SE 4.6 mph - N/A   Clear
11:52 AM 45.1 °F 42.8 °F 15.6 °F 31% 30.13 in 10.0 mi East 4.6 mph - N/A   Clear
12:12 PM 44.2 °F 41.0 °F 15.4 °F 31% 30.11 in 10.0 mi SSE 5.8 mph - N/A   Clear
12:32 PM 45.3 °F 42.3 °F 15.1 °F 30% 30.10 in 10.0 mi SSE 5.8 mph - N/A   Clear
12:52 PM 45.3 °F 41.6 °F 15.1 °F 30% 30.08 in 10.0 mi ESE 6.9 mph - N/A   Clear
1:12 PM 45.5 °F 42.5 °F 15.8 °F 30% 30.07 in 10.0 mi East 5.8 mph - N/A   Clear
1:32 PM 43.5 °F 38.9 °F 16.2 °F 33% 30.07 in 10.0 mi East 8.1 mph - N/A   Clear
1:52 PM 43.3 °F 38.6 °F 17.2 °F 35% 30.06 in 10.0 mi ESE 8.1 mph - N/A   Clear
2:12 PM 45.5 °F 42.5 °F 17.4 °F 33% 30.07 in 10.0 mi ESE 5.8 mph - N/A   Clear
2:32 PM 42.1 °F 37.7 °F 17.1 °F 37% 30.08 in 10.0 mi East 6.9 mph - N/A   Clear
2:52 PM 46.2 °F 42.7 °F 17.6 °F 32% 30.08 in 10.0 mi East 6.9 mph - N/A   Clear
3:12 PM 44.4 °F 40.5 °F 17.8 °F 34% 30.08 in 10.0 mi East 6.9 mph - N/A   Clear
3:32 PM 44.2 °F 41.0 °F 18.3 °F 35% 30.09 in 10.0 mi East 5.8 mph - N/A   Clear
3:52 PM 45.3 °F 42.3 °F 18.5 °F 34% 30.09 in 10.0 mi East 5.8 mph - N/A   Clear
4:12 PM 43.7 °F 42.1 °F 18.1 °F 36% 30.10 in 10.0 mi ESE 3.5 mph - N/A   Clear
4:32 PM 40.3 °F 38.2 °F 18.0 °F 41% 30.11 in 10.0 mi East 3.5 mph - N/A   Mostly Cloudy
4:52 PM 39.7 °F - 18.5 °F 42% 30.11 in 10.0 mi Calm Calm - N/A   Mostly Cloudy
5:12 PM 38.5 °F 30.7 °F 20.1 °F 48% 30.13 in 10.0 mi ENE 12.7 mph 16.1 mph N/A   Mostly Cloudy
5:32 PM 37.4 °F 30.3 °F 19.9 °F 49% 30.14 in 10.0 mi ENE 10.4 mph - N/A   Overcast
5:52 PM 37.0 °F 29.8 °F 18.9 °F 48% 30.15 in 10.0 mi ENE 10.4 mph - N/A   Overcast
6:12 PM 36.0 °F 29.0 °F 17.6 °F 47% 30.17 in 10.0 mi ENE 9.2 mph - N/A   Overcast
6:32 PM 35.2 °F 28.8 °F 17.1 °F 48% 30.17 in 10.0 mi NE 8.1 mph - N/A   Overcast
6:52 PM 34.7 °F 28.1 °F 17.2 °F 49% 30.19 in 10.0 mi ENE 8.1 mph - N/A   Overcast
7:12 PM 34.0 °F 26.6 °F 17.4 °F 51% 30.20 in 10.0 mi ENE 9.2 mph - N/A   Overcast
7:32 PM 32.9 °F 25.3 °F 19.4 °F 58% 30.21 in 10.0 mi ENE 9.2 mph - N/A   Overcast
7:52 PM 32.2 °F 24.4 °F 20.3 °F 62% 30.21 in 10.0 mi ENE 9.2 mph - N/A   Overcast
8:12 PM 32.0 °F 25.6 °F 20.5 °F 63% 30.22 in 10.0 mi East 6.9 mph - N/A   Overcast
8:32 PM 31.8 °F 25.4 °F 21.2 °F 65% 30.23 in 10.0 mi East 6.9 mph - N/A   Overcast
8:52 PM 31.5 °F 25.8 °F 21.6 °F 67% 30.23 in 10.0 mi East 5.8 mph - N/A   Overcast
9:12 PM 31.1 °F 26.4 °F 21.7 °F 68% 30.23 in 10.0 mi East 4.6 mph - N/A   Overcast
9:32 PM 31.1 °F 26.4 °F 21.9 °F 69% 30.24 in 10.0 mi ENE 4.6 mph - N/A   Overcast
9:52 PM 31.1 °F 26.4 °F 21.2 °F 67% 30.24 in 10.0 mi NE 4.6 mph - N/A Snow Light Snow
10:12 PM 30.7 °F 24.9 °F 22.1 °F 70% 30.25 in 10.0 mi NE 5.8 mph - N/A Snow Light Snow
10:32 PM 30.2 °F 24.3 °F 23.4 °F 76% 30.25 in 5.0 mi ENE 5.8 mph - N/A Snow Light Snow
10:52 PM 29.1 °F 23.0 °F 25.0 °F 85% 30.27 in 1.5 mi ENE 5.8 mph - N/A Snow Light Snow
11:12 PM 28.6 °F 23.5 °F 25.7 °F 89% 30.27 in 1.2 mi NNE 4.6 mph - N/A Snow Light Snow
11:32 PM 28.4 °F 22.2 °F 26.2 °F 92% 30.27 in 1.2 mi NE 5.8 mph - N/A Snow Light Snow
11:52 PM 24.1 °F 9.4 °F 20.5 °F 86% 30.30 in 1.0 mi East 20.7 mph 25.3 mph N/A Snow Snow